STARLINK-5638 (55426 NORAD) Tracking and Keplerian Element Data

This shows tracking and keplerian element data for the satellite.

Feedback or suggestion? Click here.




ElementValue
Catalog55426
NameSTARLINK-5638
Epoch Orbit1517
Epoch Day127.25001157
Epoch Year2023
RAAN182.2074
Inclination69.9986
Eccentricity0.0003436
Argument of Perigee268.0699
Mean Anonmoly92.2154
Mean Motion15.40475535
Decay Rate-0.00964476
L11 55426U 23014AM 23127.25001157 -.00964476 00000+0 -25943-1 0 9999
L22 55426 69.9986 182.2074 0003436 268.0699 92.2154 15.40475535 15177



Live tracking and technical data element details for STARLINK-5638 (NORAD 55426). STARLINK-5638 can be tracked NOW for your location showing map with azimuth and elevation plus other details from your city location.







IsCatalogInMostPopularTable: catalog: 55426, numindb: -1

Insert: records affected: 1


GetName: 55426 STARLINK-5638

Hit Count: inserted at: Mon, 05 Jun 2023 19:44:06 GMT